Wind_Speed
21 21 21 21 21 21 21 21 21 20 21 21 21 22 21 21 21 21 22 22 22 22 23 23 23 23 23 23 23 24 24 24 23 23 24 25 25 25 26 26 28 28 29
19 20 20 19 20 20 20 19 19 20 20 20 21 21 21 21 20 21 21 21 22 22 22 22 22 23 22 22 22 23 23 22 22 22 22 23 24 24 24 25 26 27 27
19 19 18 18 19 19 18 19 19 19 20 20 20 20 19 19 19 20 20 21 21 21 21 21 21 22 21 21 21 21 21 21 21 21 21 21 22 23 23 24 24 25 25
17 17 17 18 18 18 18 19 19 19 19 19 19 18 18 18 19 19 19 19 19 19 19 19 19 20 19 19 19 19 20 20 20 19 20 20 21 21 22 22 22 22 23
15 16 16 17 17 17 18 18 18 18 18 18 18 18 18 18 19 19 19 19 19 18 18 18 18 18 17 17 17 17 18 18 18 19 19 19 19 19 20 20 20 20 21
14 15 16 16 16 16 16 17 17 17 17 17 17 17 17 18 18 19 19 18 18 17 16 15 15 15 14 15 15 16 16 17 17 17 18 18 18 18 18 19 18 19 19
13 14 14 14 15 15 16 16 17 17 17 17 16 17 17 17 17 18 18 17 16 15 14 14 14 14 13 13 14 14 14 15 16 17 16 16 16 17 17 17 17 17 17
13 13 13 13 14 15 15 15 16 16 16 16 15 16 16 17 17 17 16 15 15 14 13 13 13 12 12 12 12 12 12 13 14 14 14 14 15 15 15 16 16 16 16
11 12 12 12 13 14 14 14 14 15 15 15 15 15 15 15 15 15 14 14 14 14 13 13 13 13 12 11 11 10 11 11 12 12 12 12 13 14 14 14 14 15 16
11 11 11 11 12 12 13 13 13 14 14 14 15 15 15 14 14 13 13 13 13 13 13 13 13 12 11 10 9 9 9 10 10 10 11 11 11 11 12 13 13 14 15
10 10 10 11 11 12 13 13 13 13 14 14 14 15 14 14 14 13 13 13 14 14 13 13 11 10 10 9 8 8 8 8 9 10 11 11 12 12 13 13 13 13 14
9 9 9 10 11 11 12 12 13 13 14 14 14 15 14 14 13 13 13 14 14 13 13 12 10 10 9 8 8 8 8 8 9 9 9 10 10 11 11 12 13 14 14
8 8 9 9 10 11 12 12 13 13 14 14 14 15 14 14 13 13 14 14 14 13 12 11 10 9 9 8 8 7 7 7 8 8 8 9 10 10 11 12 13 13 14
7 8 8 9 10 11 11 12 12 13 13 13 14 14 13 13 13 13 13 13 13 13 12 11 10 10 9 8 8 7 7 6 7 7 8 9 10 10 11 11 12 12 14
7 7 8 8 9 10 11 12 12 13 13 13 14 13 13 13 12 13 13 12 13 12 12 11 11 10 10 9 8 8 7 7 8 8 8 9 10 10 11 11 12 12 14
7 8 8 9 9 9 10 11 13 13 14 14 14 13 13 12 12 12 12 12 12 12 12 12 11 10 10 10 9 9 9 8 9 9 9 9 10 10 11 12 12 12 12
7 8 8 9 9 10 11 12 13 13 13 14 14 13 13 13 13 12 11 11 11 12 12 12 11 11 11 11 11 10 10 9 9 10 10 10 10 10 10 11 12 12 12
7 8 9 9 10 11 12 12 13 13 13 14 14 14 13 13 13 12 12 12 12 12 12 12 12 12 12 11 11 11 10 10 11 11 10 11 11 11 11 12 13 13 13
8 8 9 10 11 12 12 12 13 13 14 14 14 14 14 13 12 12 12 12 12 12 13 13 13 13 12 12 12 12 12 12 12 12 12 12 12 13 14 14 14 15 15
8 9 10 11 12 12 13 14 14 14 14 14 14 14 15 14 14 13 13 13 13 13 14 14 13 13 13 13 13 13 13 13 13 13 13 14 14 15 15 15 15 16 16
9 10 11 12 13 13 14 14 15 15 15 15 15 15 15 15 15 14 15 15 15 15 15 15 15 15 15 15 14 14 15 15 16 16 16 16 16 16 16 16 16 17 17
10 11 12 13 14 14 15 15 15 16 16 16 15 16 16 16 16 17 17 17 17 16 16 16 16 16 16 16 17 17 17 17 18 18 17 18 18 17 18 18 19 19 19
11 12 13 14 14 15 15 16 16 16 16 16 16 16 17 17 18 18 18 19 18 18 18 17 17 17 17 18 19 20 20 20 19 19 19 20 20 20 20 21 21 20 20
12 13 14 15 15 16 16 17 17 17 17 17 17 18 18 18 19 20 20 20 20 20 20 20 19 19 20 20 21 21 22 22 21 21 21 21 21 22 22 23 23 23 22
13 14 15 16 17 17 17 18 18 18 19 19 19 19 20 20 20 21 21 21 22 22 22 22 22 22 22 22 23 23 24 24 24 24 25 25 24 24 24 24 24 24 24
14 15 16 17 18 18 19 19 19 19 20 20 20 21 21 21 22 22 22 23 23 23 23 24 24 25 25 24 25 26 26 26 26 26 26 27 27 26 26 26 26 25 26
Wind_Direction
296 299 302 301 302 302 302 303 304 305 304 302 303 304 303 302 300 299 297 295 294 293 290 287 284 283 279 274 273 271 268 267 265 264 264 262 261 260 260 258 255 255 255
296 299 302 302 304 305 304 304 306 309 310 308 307 307 305 302 302 300 300 299 297 295 292 289 285 283 280 277 275 271 270 267 267 266 265 264 262 261 259 259 256 255 255
297 299 303 306 307 307 307 308 308 310 312 310 310 310 307 306 306 305 304 303 301 299 297 293 289 287 283 278 275 272 270 268 267 266 267 267 264 262 260 261 260 257 256
299 302 306 309 310 310 311 313 312 311 313 314 313 314 312 311 311 310 308 307 305 303 301 297 293 290 285 280 277 274 271 269 268 267 266 266 265 265 262 261 259 258 257
302 304 306 308 311 313 315 317 315 314 316 318 318 317 315 313 313 313 310 309 308 306 303 300 297 292 287 283 279 276 272 270 269 267 265 265 265 264 262 259 258 257 258
305 306 307 310 314 316 318 320 320 319 320 321 321 319 318 318 317 315 313 312 311 308 306 303 299 297 294 287 281 278 274 271 270 268 265 263 260 259 259 258 258 257 257
308 309 312 313 317 320 322 323 324 323 322 323 324 324 322 321 322 321 319 316 316 313 308 306 304 301 296 288 284 281 277 274 270 269 265 260 257 255 255 255 255 254 254
311 314 315 316 320 324 325 327 328 327 328 330 329 329 327 326 326 325 325 323 321 322 320 316 313 309 304 295 291 285 280 277 274 270 267 261 257 254 253 252 251 252 252
315 318 320 322 323 327 331 334 335 334 333 334 335 335 334 334 333 332 332 332 330 328 325 321 318 313 307 300 295 290 284 282 277 270 272 268 260 254 253 254 253 252 254
316 320 322 325 327 331 336 336 338 341 341 341 341 341 341 341 341 340 340 339 337 334 330 326 321 316 312 305 298 292 289 284 278 271 270 270 263 258 255 256 256 255 258
316 319 323 326 330 334 337 340 342 343 344 344 345 344 345 346 346 347 347 345 341 337 333 330 327 321 316 314 308 299 293 290 284 276 270 270 270 266 258 256 256 257 259
317 320 325 328 331 333 340 343 344 344 344 344 345 346 345 344 345 346 347 347 346 343 340 337 333 330 325 323 320 311 300 294 288 282 275 271 270 269 264 261 257 259 261
321 324 327 329 331 334 338 342 342 341 342 344 345 346 347 347 347 346 346 348 349 350 350 348 346 345 342 336 330 323 312 303 295 287 281 277 276 271 268 267 266 264 261
335 335 333 333 336 337 340 343 344 345 345 346 348 349 349 350 351 352 353 355 357 359 1 1 357 353 351 349 345 340 329 318 309 299 290 284 282 277 273 272 273 271 269
351 351 347 345 344 344 346 350 349 349 348 347 347 349 352 353 353 356 357 358 360 2 3 2 358 352 350 348 345 339 330 320 313 305 298 291 286 281 277 275 275 276 273
355 354 354 355 354 351 349 350 351 350 348 347 347 348 351 353 354 356 356 358 0 0 360 358 356 354 352 349 343 338 334 326 318 310 306 302 295 288 284 280 277 277 275
356 354 351 352 352 351 350 349 349 349 349 349 349 350 350 350 350 353 354 354 355 357 357 357 355 351 350 348 343 339 335 330 325 322 317 313 309 304 297 288 283 279 277
359 355 352 350 349 349 348 347 347 348 349 350 350 350 350 350 350 349 351 351 350 350 351 350 348 346 344 343 340 336 332 329 326 323 319 316 313 308 302 295 290 285 282
360 357 353 351 349 348 347 347 348 348 348 348 347 347 346 345 345 344 344 344 343 345 346 345 343 341 340 338 335 332 329 325 322 319 315 313 310 309 306 301 296 293 287
354 353 351 351 349 349 348 346 345 345 344 343 342 342 342 340 337 336 336 336 335 335 336 336 337 336 334 332 330 327 324 323 320 316 313 311 309 307 304 301 298 296 292
346 345 345 345 344 343 342 342 342 341 341 341 341 340 339 339 338 334 331 330 330 329 328 328 328 327 326 325 323 322 319 316 315 313 311 310 309 307 304 301 298 295 294
339 339 339 339 339 339 340 340 339 338 338 339 340 340 338 336 336 334 330 328 328 327 327 326 325 324 322 322 320 318 315 313 310 309 309 308 307 305 302 300 299 296 293
337 337 337 338 338 338 337 337 336 336 336 336 335 334 333 332 331 329 328 326 325 324 322 323 322 320 319 319 317 316 315 313 310 307 305 305 304 303 302 301 300 296 293
336 337 337 337 336 335 334 333 332 332 332 332 331 330 330 328 327 326 325 323 322 320 318 318 318 317 316 315 314 314 314 313 309 306 305 303 301 300 299 299 298 295 292
333 334 335 335 334 334 332 330 330 330 329 328 327 327 326 326 326 325 323 322 321 319 317 316 315 314 312 311 310 310 310 310 307 305 303 303 302 300 298 297 294 292 290
332 332 333 332 331 331 330 330 329 329 329 328 327 326 326 324 324 323 322 321 321 319 317 316 315 314 311 309 309 309 308 307 304 302 301 301 301 300 298 295 293 290 290
Height
5794 5791 5788 5785 5782 5779 5776 5773 5770 5767 5764 5760 5757 5754 5751 5749 5746 5744 5742 5739 5737 5735 5733 5731 5730 5729 5728 5727 5727 5726 5726 5726 5726 5727 5727 5727 5727 5728 5729 5730 5732 5733 5735
5789 5786 5783 5780 5777 5774 5771 5768 5765 5762 5759 5756 5752 5749 5746 5744 5741 5739 5736 5734 5731 5729 5727 5725 5723 5722 5721 5720 5720 5719 5719 5719 5720 5720 5720 5720 5721 5721 5722 5723 5724 5726 5727
5784 5781 5778 5776 5773 5769 5766 5763 5761 5758 5755 5751 5748 5745 5742 5739 5736 5734 5731 5728 5725 5723 5721 5719 5717 5716 5714 5714 5713 5713 5713 5713 5713 5714 5714 5714 5714 5715 5716 5717 5718 5719 5720
5780 5777 5774 5772 5769 5766 5763 5760 5757 5754 5751 5747 5744 5741 5738 5735 5732 5729 5726 5723 5720 5718 5715 5713 5711 5710 5708 5707 5707 5707 5706 5707 5707 5707 5708 5708 5708 5709 5710 5711 5712 5712 5714
5776 5773 5771 5768 5765 5762 5759 5756 5753 5750 5746 5743 5740 5737 5734 5731 5728 5725 5721 5719 5716 5713 5711 5708 5706 5705 5703 5702 5702 5701 5701 5701 5701 5701 5702 5702 5703 5703 5704 5705 5706 5707 5708
5772 5770 5767 5765 5762 5759 5756 5752 5749 5746 5743 5740 5737 5733 5730 5727 5724 5721 5718 5715 5712 5709 5706 5704 5702 5700 5699 5697 5697 5696 5696 5696 5696 5696 5696 5697 5697 5698 5699 5700 5701 5702 5703
5769 5767 5764 5761 5758 5755 5752 5749 5746 5743 5740 5737 5734 5730 5727 5724 5721 5718 5714 5711 5708 5705 5702 5700 5698 5696 5694 5693 5692 5692 5691 5691 5691 5691 5691 5692 5692 5693 5694 5695 5695 5696 5698
5766 5764 5761 5758 5756 5753 5750 5747 5744 5741 5738 5734 5731 5728 5724 5721 5718 5715 5711 5708 5705 5702 5699 5697 5694 5692 5691 5689 5688 5688 5687 5687 5686 5686 5686 5687 5687 5688 5689 5690 5691 5692 5693
5763 5761 5758 5756 5754 5751 5748 5745 5742 5739 5736 5732 5729 5726 5722 5719 5715 5712 5709 5706 5703 5700 5697 5694 5692 5690 5688 5686 5685 5684 5684 5683 5682 5682 5682 5682 5683 5684 5685 5686 5686 5687 5688
5761 5758 5756 5754 5752 5749 5746 5743 5741 5737 5734 5731 5728 5724 5720 5717 5714 5710 5707 5704 5701 5698 5695 5692 5689 5687 5685 5684 5682 5681 5680 5680 5679 5679 5679 5680 5680 5680 5681 5682 5682 5683 5684
5759 5757 5755 5753 5750 5748 5745 5742 5739 5736 5733 5730 5726 5723 5719 5716 5712 5709 5706 5703 5700 5696 5693 5690 5687 5685 5683 5681 5680 5679 5678 5677 5677 5676 5676 5676 5676 5677 5677 5678 5678 5679 5680
5757 5755 5753 5751 5749 5746 5744 5741 5738 5735 5732 5729 5725 5722 5718 5715 5712 5709 5705 5702 5699 5695 5692 5689 5686 5684 5682 5680 5679 5677 5676 5675 5675 5674 5674 5673 5673 5673 5673 5673 5674 5675 5675
5755 5754 5752 5750 5747 5745 5742 5740 5737 5734 5731 5728 5724 5721 5717 5714 5711 5708 5705 5701 5698 5694 5691 5688 5686 5683 5681 5679 5677 5676 5675 5674 5673 5672 5672 5671 5671 5671 5670 5670 5670 5670 5670
5754 5752 5750 5748 5746 5744 5741 5739 5736 5733 5730 5727 5724 5720 5717 5714 5710 5707 5704 5701 5697 5694 5691 5688 5686 5683 5681 5679 5677 5675 5674 5673 5671 5670 5670 5669 5668 5668 5667 5667 5666 5666 5666
5753 5751 5749 5747 5745 5743 5741 5738 5735 5732 5729 5726 5723 5720 5717 5714 5710 5707 5704 5701 5698 5695 5692 5689 5686 5684 5681 5679 5677 5675 5673 5672 5670 5669 5668 5667 5666 5665 5664 5663 5663 5662 5662
5752 5751 5749 5747 5745 5742 5740 5737 5734 5732 5729 5725 5722 5719 5716 5713 5710 5707 5704 5701 5698 5695 5692 5689 5686 5684 5681 5679 5676 5674 5673 5671 5669 5667 5666 5664 5663 5662 5661 5660 5659 5658 5658
5752 5750 5748 5746 5744 5742 5739 5737 5734 5731 5728 5725 5722 5719 5716 5713 5710 5707 5704 5701 5698 5695 5692 5689 5686 5684 5681 5678 5676 5674 5672 5670 5668 5666 5664 5662 5661 5659 5658 5657 5656 5655 5654
5751 5750 5748 5746 5743 5741 5739 5736 5733 5730 5727 5724 5721 5718 5715 5712 5709 5706 5703 5701 5698 5695 5692 5689 5686 5683 5680 5678 5675 5673 5671 5669 5667 5664 5662 5660 5658 5657 5655 5653 5652 5651 5650
5751 5750 5748 5745 5743 5740 5738 5735 5732 5729 5726 5723 5720 5717 5714 5711 5708 5705 5702 5700 5697 5694 5691 5688 5685 5682 5680 5677 5674 5672 5669 5667 5665 5662 5660 5658 5656 5654 5652 5650 5648 5647 5645
5751 5749 5747 5745 5742 5739 5737 5734 5731 5728 5725 5722 5719 5716 5713 5710 5707 5704 5701 5698 5696 5693 5690 5687 5684 5681 5678 5675 5673 5670 5667 5665 5662 5660 5657 5655 5652 5650 5648 5645 5644 5642 5640
5750 5748 5746 5744 5741 5738 5736 5733 5730 5727 5724 5720 5717 5714 5711 5708 5705 5702 5699 5696 5693 5691 5688 5685 5682 5679 5676 5673 5670 5667 5665 5662 5659 5656 5654 5651 5648 5646 5643 5641 5639 5637 5635
5749 5747 5745 5742 5740 5737 5734 5731 5728 5725 5722 5719 5716 5713 5710 5707 5704 5700 5697 5694 5691 5688 5685 5682 5679 5676 5673 5670 5667 5664 5661 5658 5655 5652 5649 5647 5644 5641 5639 5636 5633 5631 5629
5748 5745 5743 5740 5738 5735 5732 5729 5726 5723 5720 5717 5714 5710 5707 5704 5701 5698 5695 5691 5688 5685 5682 5679 5675 5672 5669 5666 5663 5660 5656 5653 5650 5647 5644 5641 5639 5636 5633 5630 5627 5624 5622
5746 5744 5741 5739 5736 5733 5730 5727 5724 5721 5718 5714 5711 5708 5704 5701 5698 5694 5691 5688 5684 5681 5678 5675 5671 5668 5665 5661 5658 5654 5651 5648 5644 5641 5638 5635 5632 5629 5626 5623 5620 5618 5615
5744 5742 5739 5736 5734 5731 5728 5724 5721 5718 5715 5711 5708 5704 5701 5697 5694 5691 5687 5684 5680 5677 5673 5670 5666 5663 5659 5656 5652 5649 5645 5641 5638 5635 5632 5629 5625 5622 5619 5616 5613 5610 5608
5742 5740 5737 5734 5731 5728 5724 5721 5718 5714 5711 5708 5704 5701 5697 5694 5690 5686 5683 5679 5675 5672 5668 5664 5661 5657 5653 5649 5646 5642 5638 5634 5631 5627 5623 5620 5617 5614 5611 5607 5604 5601 5599